Regional Weather Roundup
Issued by NWS

Home | Current Version | Previous Version | Text Only | Print | Product List | Glossary Off
Versions: 1 2 3 4 5 6 7 8 9 10 11 12 13 14 15 16 17 18 19 20 21 22 23 24 25 26 27 28 29 30 31 32 33 34 35 36 37 38 39 40 41 42 43 44 45 46 47 48 49 50

000
ASUS43 KOAX 220302
RWRNE

WEATHER ROUNDUP FOR NEBRASKA
NATIONAL WEATHER SERVICE OMAHA NE
1000 PM CDT MON MAY 21 2018

NOTES: SATELLITE DATA IS BEING USED TO AUGMENT CLOUD COVER ABOVE
       12000 FEET.
       "FAIR" INDICATES FEW OR NO CLOUDS BELOW 12,000 FEET WITH NO
       SIGNIFICANT WEATHER AND/OR OBSTRUCTIONS TO VISIBILITY.


NEZ001>004-019>022-054>056-220400-
NEBRASKA PANHANDLE

CITY           SKY/WX    TMP DP  RH WIND       PRES   REMARKS
SCOTTSBLUFF    PTCLDY    61  59  93 E9        29.93S
ALLIANCE       MOCLDY    56  55  97 SE8       29.94S
CHADRON        CLOUDY    63  56  78 CALM      29.91R
GORDON         FAIR      62  55  77 S5        29.94S
KIMBALL        MOCLDY    59  54  83 E9        29.99F
SIDNEY         MOCLDY    61  55  81 E8        29.97F
$$

NEZ057>060-069>072-079>082-220400-
SOUTHWEST NEBRASKA

CITY           SKY/WX    TMP DP  RH WIND       PRES   REMARKS
NORTH PLATTE   CLOUDY    66  62  87 SE7       29.93R
IMPERIAL       MOCLDY    67  58  72 SE9       29.91S
LEXINGTON      CLOUDY    68  62  79 SE9       29.94R
MCCOOK         CLOUDY    70  60  70 SE9       29.90S
OGALLALA       MOCLDY    65  57  74 N8        29.94R
$$

NEZ005>010-023>029-035>040-094-220400-
NORTH CENTRAL NEBRASKA

CITY           SKY/WX    TMP DP  RH WIND       PRES   REMARKS
VALENTINE      PTCLDY    67  57  70 SE8       29.93R
AINSWORTH      PTCLDY    63  58  83 SE8       29.96R
BROKEN BOW     MOCLDY    65  60  84 SE6       29.95R
O`NEILL        PTCLDY    66  58  75 S6        29.97R
ORD            PTCLDY    62  59  90 E5        29.95R
THEDFORD       CLOUDY    64  59  83 E6        29.96R
$$

NEZ041-046>049-061>064-073>077-083>087-220400-
SOUTH CENTRAL NEBRASKA

CITY           SKY/WX    TMP DP  RH WIND       PRES   REMARKS
GRAND ISLAND   CLOUDY    66  59  78 E6        29.98R
AURORA         CLOUDY    68  61  79 SE7       29.99R
HASTINGS       PTCLDY    69  58  67 SE9       29.98R
HEBRON         CLOUDY    68  58  69 SE6       29.99R
HOLDREGE       CLOUDY    65  61  86 SE9       29.95S
KEARNEY        CLOUDY    67  59  75 SE12      29.96R
YORK           CLOUDY    68  63  83 E8        29.97S
$$

NEZ011>018-030>034-042>045-220400-
NORTHEAST NEBRASKA

CITY           SKY/WX    TMP DP  RH WIND       PRES   REMARKS
NORFOLK        CLOUDY    64  57  78 S7        29.96R
ALBION         CLOUDY    66  60  82 SE5       29.98R
BLAIR          CLOUDY    65  58  78 E7        29.98S
COLUMBUS       PTCLDY    66  59  78 E5        29.98R
FREMONT        PTCLDY    66  59  78 CALM      29.99R
TEKAMAH        CLOUDY    63  60  90 CALM      29.98R
WAYNE          CLOUDY    63  62  97 E8        29.97R
$$

NEZ050>053-065>068-078-088>093-220400-
SOUTHEAST NEBRASKA

CITY           SKY/WX    TMP DP  RH WIND       PRES   REMARKS
LINCOLN        CLOUDY    69  56  62 E5        29.98R
OMAHA EPPLEY   CLOUDY    68  57  68 CALM      29.98R
BEATRICE       CLOUDY    69  58  67 S3        29.99R
FALLS CITY     CLEAR     70  58  65 S7        29.97R
NEBRASKA CITY  PTCLDY    71  53  54 CALM      29.99R
PLATTSMOUTH    CLOUDY    69  55  61 CALM      29.99R
$$

NEZ044-045-051>053-067-220400-
OMAHA AREA

CITY           SKY/WX    TMP DP  RH WIND       PRES   REMARKS
OMAHA EPPLEY   CLOUDY    68  57  68 CALM      29.98R
BLAIR          CLOUDY    65  58  78 E7        29.98S
FREMONT        PTCLDY    66  59  78 CALM      29.99R
MILLARD        CLOUDY    66  56  68 CALM      29.98R
OFFUTT AFB     CLOUDY    62  57  84 NE6       29.97R
PLATTSMOUTH    CLOUDY    69  55  61 CALM      29.99R
WAHOO          FAIR      65  55  69 NE3       29.98R
$$




USA.gov is the U.S. government's official web portal to all federal, state and local government web resources and services.